Location: Newark
(41.6478°N, 9.0078°E)
Time: 20:51:53
(UTC+00:00)

UWE-3 - Pass Details

Date: 30 January 2020
Orbit: 585 x 682 km, 97.6° (Epoch: 22 February)

Event Time Altitude Azimuth Distance (km) Brightness Sun altitude
Rises 03:41:52 0° 34° (NE) 2,906 ? -33.1°
Reaches altitude 10° 03:45:14 10° 63° (ENE) 2,017 ? -32.5°
Maximum altitude 03:47:16 13° 91° (E) 1,832 ? -32.1°
Drops below altitude 10° 03:49:20 10° 119° (ESE) 2,038 ? -31.7°
Sets 03:52:45 0° 146° (SSE) 2,964 ? -31.1°
